GW1715 Weather Reports


time (UTC)temp
C
wind
direction
speed
KPH
gust
KPH
rain 1hr
cm
rain 24hr
cm
rain mn
cm
humidity
%
barometer
mb
20260906124552 17 78 0.0 3.2 0.00 1.88 0.00 97 1016.5
20260906123056 17 0 0.0 0.0 0.00 1.88 0.00 97 1016.4
20260906121548 17 0 0.0 3.2 0.00 1.88 0.00 97 1016.2
20260906120115 17 0 0.0 0.0 0.00 1.88 0.00 97 1016.1
20260906114552 16 0 0.0 0.0 0.00 1.88 0.00 97 1016.0
20260906113100 16 0 0.0 0.0 0.00 1.88 0.00 96 1016.0
20260906111550 16 0 0.0 0.0 0.00 1.88 0.00 96 1015.8
20260906110051 16 0 0.0 3.2 0.00 1.88 0.00 96 1015.4
20260906104553 16 0 0.0 3.2 0.00 1.88 0.00 96 1015.3
20260906103112 16 118 1.6 4.8 0.00 1.88 0.00 96 1015.2
20260906101547 17 76 1.6 6.4 0.00 1.88 0.00 96 1015.0
20260906100105 17 77 0.0 4.8 0.00 1.88 0.00 96 1015.0
20260906094550 17 77 0.0 3.2 0.00 1.88 0.00 96 1015.0
20260906093107 17 0 0.0 3.2 0.00 1.88 0.00 96 1014.8
20260906091548 17 0 0.0 3.2 0.00 1.88 0.00 96 1014.9
20260906090059 17 0 0.0 1.6 0.00 1.88 0.00 96 1015.0
20260906084550 17 0 0.0 1.6 0.00 1.91 0.00 96 1015.2
20260906083048 17 0 0.0 1.6 0.00 1.91 0.00 96 1015.1
20260906081553 17 0 0.0 0.0 0.00 1.91 0.00 96 1015.0
20260906080120 17 0 0.0 1.6 0.00 1.91 0.00 96 1014.7
20260906074604 17 0 0.0 3.2 0.00 1.91 0.00 95 1014.5
20260906073105 17 0 1.6 4.8 0.00 1.91 0.00 95 1014.5
20260906071548 17 0 1.6 4.8 0.00 1.91 0.00 95 1014.4
20260906070047 17 0 0.0 3.2 0.00 1.91 0.00 95 1014.7
20260906064552 17 261 0.0 1.6 0.00 1.91 0.00 95 1014.6
20260906063051 17 0 0.0 1.6 0.00 1.91 0.00 95 1014.9
20260906061549 17 0 0.0 3.2 0.00 1.91 0.00 95 1014.9
20260906060046 17 260 0.0 4.8 0.00 1.91 0.00 95 1015.0
20260906054551 17 51 0.0 3.2 0.00 1.91 0.00 95 1015.0
20260906053051 17 0 0.0 0.0 0.00 1.91 0.00 94 1014.9
20260906051559 17 0 0.0 3.2 0.00 1.91 0.00 94 1014.9
20260906044554 18 0 0.0 0.0 0.00 1.91 0.00 94 1015.2
20260906043057 18 82 1.6 4.8 0.00 1.91 0.00 94 1015.2
20260906041546 18 138 1.6 3.2 0.00 1.91 0.00 94 1015.3
20260906040056 18 0 0.0 3.2 0.00 1.91 0.00 94 1015.5
20260906034608 18 183 0.0 1.6 0.00 2.24 1.91 94 1015.7
20260906033050 18 0 1.6 4.8 0.00 2.24 1.91 94 1016.0
20260906031549 18 0 0.0 1.6 0.00 2.24 1.91 94 1015.9
20260906030052 18 63 0.0 1.6 0.00 2.24 1.91 94 1016.0
20260906024549 18 0 0.0 4.8 0.00 2.24 1.91 94 1015.8
20260906023047 18 0 0.0 0.0 0.00 2.24 1.91 93 1015.9
20260906021549 18 0 0.0 3.2 0.00 2.24 1.91 92 1015.9
20260906020059 18 136 0.0 3.2 0.00 2.24 1.91 92 1015.6
20260906014555 18 0 0.0 0.0 0.00 2.24 1.91 92 1015.5
20260906013103 19 0 0.0 3.2 0.00 2.24 1.91 92 1015.4
20260906011551 19 87 1.6 3.2 0.00 2.24 1.91 91 1015.2
20260906010053 20 0 0.0 3.2 0.00 2.24 1.91 90 1014.6
20260906004545 20 241 1.6 3.2 0.00 2.24 1.91 88 1014.5
20260906003053 21 0 0.0 0.0 0.00 2.24 1.91 87 1014.5
20260906001550 21 0 0.0 1.6 0.00 2.24 1.91 85 1014.6
20260906000101 22 0 0.0 1.6 0.00 2.24 1.91 84 1014.6
20260905234619 22 241 1.6 4.8 0.00 2.24 1.91 82 1014.7
20260905233053 23 268 3.2 4.8 0.00 2.24 1.91 79 1014.6
20260905231550 23 265 3.2 6.4 0.00 2.24 1.91 77 1014.7
20260905230054 24 257 3.2 8.0 0.00 2.24 1.91 75 1014.6
20260905224552 24 261 1.6 9.7 0.00 2.24 1.91 74 1015.0
20260905223051 24 282 3.2 14.5 0.00 2.24 1.91 72 1015.0
20260905221545 25 344 4.8 9.7 0.00 2.24 1.91 70 1014.9
20260905214549 25 355 3.2 12.9 0.00 2.31 1.91 68 1014.7
20260905213049 25 336 6.4 12.9 0.00 2.31 1.91 69 1014.4
20260905211548 25 338 4.8 17.7 0.00 2.31 1.91 69 1014.4
20260905210105 25 291 4.8 16.1 0.00 2.31 1.91 69 1014.3
20260905204554 25 330 6.4 12.9 0.00 3.17 1.91 69 1014.2
20260905203106 25 306 8.0 14.5 0.00 3.17 1.91 69 1014.2
20260905201545 25 339 4.8 14.5 0.00 3.17 1.91 67 1014.0
20260905200054 26 329 3.2 9.7 0.00 3.17 1.91 72 1014.2
20260905194550 25 252 6.4 14.5 0.00 3.17 1.91 69 1014.4
20260905193044 25 302 3.2 14.5 0.00 3.17 1.91 70 1014.5
20260905191556 25 282 1.6 12.9 0.00 3.17 1.91 72 1014.9
20260905190054 25 263 8.0 16.1 0.00 3.17 1.91 71 1015.3
20260905184555 25 282 4.8 12.9 0.00 3.17 1.91 72 1015.7
20260905183048 25 0 1.6 8.0 0.00 3.17 1.91 73 1015.6
20260905181555 24 15 3.2 9.7 0.00 3.17 1.91 75 1015.6
20260905180052 24 80 3.2 12.9 0.00 3.17 1.91 75 1015.8
20260905174551 23 334 4.8 17.7 0.00 3.17 1.91 76 1016.2
20260905173048 24 338 1.6 14.5 0.00 3.17 1.91 80 1016.2
20260905171556 23 261 6.4 12.9 0.00 3.17 1.91 80 1016.5
20260905170101 23 238 4.8 8.0 0.00 3.17 1.91 83 1016.4
20260905164552 22 297 4.8 17.7 0.00 3.17 1.91 84 1016.8
20260905163053 22 290 3.2 8.0 0.00 3.17 1.91 85 1016.8
20260905161557 21 285 1.6 6.4 0.00 3.17 1.91 88 1016.7
20260905154613 21 236 1.6 8.0 0.00 3.17 1.91 93 1016.1
20260905153049 20 0 1.6 9.7 0.00 3.17 1.91 96 1016.1
20260905151555 18 85 1.6 8.0 0.05 3.17 1.91 95 1015.8
20260905144549 18 102 1.6 6.4 0.05 3.17 1.91 95 1016.7
20260905143056 18 215 0.0 4.8 0.08 3.17 1.91 96 1017.5
20260905141554 18 0 0.0 4.8 0.05 3.12 1.85 96 1017.5
20260905140050 18 0 0.0 3.2 0.23 3.12 1.85 95 1017.6
20260905134549 17 74 1.6 11.3 0.33 3.12 1.85 95 1017.6
20260905133048 18 98 1.6 6.4 1.80 3.10 1.83 95 1017.8
20260905131544 17 93 3.2 19.3 1.78 3.07 1.80 95 1017.6
20260905130051 17 344 4.8 19.3 1.60 2.90 1.63 95 1017.8